Weather History for Corpus Christi NAS, TX

Change the Weather History Date:

Monday, November 5, 2012

  Actual Average Record
Temperature  
Mean Temperature 73 °F -  
Max Temperature 80 °F 75 °F 84 °F (1997)
Min Temperature 66 °F 60 °F 48 °F (2004)
Cooling Degree Days 8    
Growing Degree Days 23 (Base 50)    
Moisture  
Dew Point 70 °F    
Average Humidity 92    
Maximum Humidity 100    
Minimum Humidity 74    
Precipitation  
Precipitation 0.01 in - - ()
Sea Level Pressure  
Sea Level Pressure 30.03 in    
Wind  
Wind Speed 4 mph (SW)    
Max Wind Speed 12 mph    
Max Gust Speed -    
Visibility 6 miles    
Events Fog    
Averages and records for this station are not official NWS values.
T = Trace of Precipitation, MM = Missing Value Source: NWS Daily Summary

Daily Weather History Graph

Daily Weather History Graph

Search for Another Location

Airport:

Trip Planner

Search our weather history database for the weather conditions in past years. The results will help you decide how hot, cold, wet, or windy it might be!

Date:

Astronomy

Nov. 05, 2012 Rise Set
Actual Time 6:43 AM CST 5:42 PM CST
Civil Twilight 6:18 AM CST 6:06 PM CST
Nautical Twilight 5:50 AM CST 6:34 PM CST
Astronomical Twilight 5:23 AM CST 7:01 PM CST
Moon 11:19 PM CST (11/5) 12:02 PM CST (11/5)
Length of Visible Light 11h 47m
Length of Day
10h 58m
Waning Gibbous, 62% of the Moon is Illuminated
Nov 5
Waning Gibbous
Nov 6
Last Quarter
Nov 13
New
Nov 20
First Quarter
Nov 28
Full

Hourly Weather History & Observations

Time (CST) Temp. Heat Index Dew Point Humidity Pressure Visibility Wind Dir Wind Speed Gust Speed Precip Events Conditions
12:56 AM - - - N/A% 30.06 in 10.0 mi South 4.6 mph - N/A   Clear
1:56 AM - - - N/A% 30.06 in 10.0 mi WSW 3.5 mph - N/A   Clear
2:56 AM - - - N/A% 30.04 in 9.0 mi WSW 4.6 mph - 0.01 in   Clear
3:20 AM - - - N/A% 30.03 in 1.8 mi SW 3.5 mph - N/A   Clear
3:24 AM - - - N/A% 30.03 in 1.0 mi SW 3.5 mph - N/A   Clear
3:34 AM - - - N/A% 30.03 in 1.5 mi SW 4.6 mph - N/A   Clear
3:39 AM - - - N/A% 30.03 in 3.0 mi SW 4.6 mph - N/A   Clear
3:56 AM - - - N/A% 30.03 in 8.0 mi WSW 4.6 mph - N/A   Clear
4:12 AM 69.8 °F - 69.8 °F 100% 30.02 in 5.0 mi WSW 5.8 mph - N/A   Scattered Clouds
4:16 AM 69.8 °F - 69.8 °F 100% 30.02 in 1.8 mi WSW 5.8 mph - N/A   Scattered Clouds
4:18 AM 69.8 °F - 68.0 °F 94% 30.02 in 1.2 mi WSW 5.8 mph - N/A   Mostly Cloudy
4:22 AM 68.0 °F - 68.0 °F 100% 30.02 in 0.8 mi WSW 4.6 mph - N/A   Mist
4:30 AM 68.0 °F - 68.0 °F 100% 30.02 in 1.2 mi WSW 4.6 mph - N/A   Mostly Cloudy
4:36 AM 68.0 °F - 68.0 °F 100% 30.02 in 2.0 mi WSW 4.6 mph - N/A   Mostly Cloudy
4:48 AM 68.0 °F - 66.2 °F 94% 30.02 in 1.2 mi Calm Calm - N/A   Mostly Cloudy
4:50 AM 66.2 °F - 66.2 °F 100% 30.02 in 0.8 mi West 3.5 mph - N/A   Mist
4:56 AM 66.9 °F - 66.9 °F 100% 30.03 in 0.5 mi West 4.6 mph - N/A Fog Fog
5:07 AM 66.2 °F - 66.2 °F 100% 30.03 in 1.0 mi West 3.5 mph - N/A   Mist
5:12 AM 66.2 °F - 66.2 °F 100% 30.03 in 1.5 mi West 3.5 mph - N/A   Scattered Clouds
5:20 AM 66.2 °F - 66.2 °F 100% 30.03 in 3.0 mi West 4.6 mph - N/A   Partly Cloudy
5:41 AM 66.2 °F - 66.2 °F 100% 30.03 in 1.8 mi Calm Calm - N/A   Clear
5:43 AM 66.2 °F - 66.2 °F 100% 30.03 in 1.0 mi Calm Calm - N/A   Clear
5:47 AM 66.2 °F - 66.2 °F 100% 30.03 in 0.5 mi Calm Calm - N/A Fog Fog
5:53 AM 68.0 °F - 68.0 °F 100% 30.03 in 1.0 mi Calm Calm - N/A   Clear
5:56 AM 68.0 °F - 68.0 °F 100% 30.03 in 1.8 mi Calm Calm - N/A   Clear
6:02 AM 69.8 °F - 68.0 °F 94% 30.03 in 10.0 mi Calm Calm - N/A Fog Shallow Fog
6:56 AM 68.0 °F - 68.0 °F 100% 30.04 in 10.0 mi Calm Calm - N/A Fog Shallow Fog
7:56 AM 72.0 °F - 71.1 °F 97% 30.06 in 7.0 mi Calm Calm - N/A   Mostly Cloudy
8:14 AM 73.4 °F - 71.6 °F 94% 30.07 in 10.0 mi Calm Calm - N/A   Mostly Cloudy
8:56 AM 75.0 °F - 72.0 °F 90% 30.08 in 9.0 mi North 3.5 mph - N/A   Mostly Cloudy
9:31 AM 75.2 °F - 71.6 °F 89% 30.08 in 0.5 mi North 3.5 mph - N/A Fog Fog
9:51 AM 75.2 °F - 71.6 °F 89% 30.08 in 7.0 mi North 3.5 mph - N/A   Mostly Cloudy
9:56 AM 75.9 °F - 72.0 °F 87% 30.08 in 7.0 mi North 5.8 mph - N/A   Mostly Cloudy
10:15 AM 77.0 °F - 71.6 °F 83% 30.08 in 10.0 mi NNE 4.6 mph - N/A   Scattered Clouds
10:56 AM 78.1 °F - 72.0 °F 81% 30.07 in 10.0 mi ENE 5.8 mph - N/A   Scattered Clouds
11:56 AM 79.0 °F - 72.0 °F 79% 30.04 in 10.0 mi ESE 6.9 mph - N/A   Partly Cloudy
12:56 PM 80.1 °F 83.6 °F 71.1 °F 74% 30.01 in 10.0 mi ESE 6.9 mph - N/A   Scattered Clouds
1:56 PM 80.1 °F 83.8 °F 72.0 °F 76% 29.99 in 10.0 mi ESE 9.2 mph - N/A   Partly Cloudy
2:56 PM 79.0 °F - 72.0 °F 79% 29.97 in 10.0 mi ESE 9.2 mph - N/A   Scattered Clouds
3:56 PM 79.0 °F - 73.0 °F 82% 29.96 in 10.0 mi ESE 11.5 mph - N/A   Scattered Clouds
4:56 PM 78.1 °F - 72.0 °F 81% 29.96 in 10.0 mi SE 11.5 mph - N/A   Scattered Clouds
5:56 PM 75.9 °F - 72.0 °F 87% 29.97 in 10.0 mi SSE 9.2 mph - N/A   Scattered Clouds
6:56 PM 75.0 °F - 72.0 °F 90% 29.98 in 10.0 mi SSE 10.4 mph - N/A   Partly Cloudy
7:56 PM 75.9 °F - 73.0 °F 91% 29.99 in 10.0 mi South 9.2 mph - N/A   Partly Cloudy
8:56 PM 75.9 °F - 73.0 °F 91% 30.00 in 10.0 mi South 8.1 mph - N/A   Partly Cloudy
9:56 PM 75.9 °F - 73.0 °F 91% 30.00 in 10.0 mi South 8.1 mph - N/A   Partly Cloudy
10:56 PM 75.0 °F - 73.0 °F 94% 30.00 in 10.0 mi SSW 5.8 mph - N/A   Partly Cloudy
11:56 PM 75.0 °F - 72.0 °F 90% 29.99 in 10.0 mi SSW 8.1 mph - N/A   Clear